Location: Barcelona
(41.3829°N, 2.1774°E)
Time: 13:36:16
(UTC+00:00)

ISS - Pass Details

Date: 10 July 2024
Orbit: 410 x 424 km, 51.6° (Epoch: 14 July)

Event Time Altitude Azimuth Distance (km) Brightness Sun altitude
Rises 22:35:09 0° 281° (WNW) 2,337 0.5 -23.8°
Reaches altitude 10° 22:37:45 10° 303° (WNW) 1,478 -0.3 -23.9°
Maximum altitude 22:40:02 17° 347° (NNW) 1,119 -0.7 -24.1°
Drops below altitude 10° 22:42:20 10° 31° (NNE) 1,483 -0.5 -24.2°
Sets 22:44:57 0° 52° (NE) 2,348 0.3 -24.4°
